Home > Time Zones > World Clock > Weather > Italy > Monza > Past weeks

Flag for Italy Weather past 2 weeks in Monza, Italy

Now
81 °F

Passing clouds.


Feels Like: 83 °F
Forecast: 72 / 91 °F
Wind: 2 mph from North

Location: Milan / Linate

Current Time: Aug 4, 2015 at 10:53:03 PM

Latest Report: Aug 4, 2015 at 9:50 PM


Visibility: N/A

Pressure: 29.92 "Hg

Humidity: 62%

Dew point: 66 °F

Location of MonzaLocation

Historic Weather in Monza — Graph

°F

Monza temperature yesterday

Maximum temperature yesterday: 88 °F (at 4:20 PM)
Minimum temperature yesterday: 68 °F (at 4:20 AM)
Average temperature yesterday: 78 °F

Past Weeks' High & Low Weather Summary

 TemperatureHumidityPressure
High99 °F (Jul 22, 3:50 PM)100% (Aug 2, 4:20 AM)30.07 "Hg (Aug 2, 4:20 AM)
Low63 °F (Aug 2, 4:20 AM)26% (Jul 23, 6:50 PM)29.62 "Hg (Jul 27, 4:50 PM)
Average80 °F59%29.86 "Hg
* Reported Jul 20 9:20 PM — Aug 4 9:50 PM, Monza, Weather by CustomWeather, © 2015

Note: Actual official high and low records may vary slightly from our data, if they occured in-between our weather recording intervals... More about our weather records

Advertising

Monza weather history for previous 24 hours

 ConditionsComfort  
Time TempWeatherWind HumidityBarometerVisibility
9:50 PM
Tue, Aug 4
81 °FPassing clouds.2 mph62%29.92 "HgN/A
9:20 PM82 °FPassing clouds.3 mph58%29.92 "HgN/A
8:50 PM82 °FPassing clouds.5 mph58%29.89 "HgN/A
8:20 PM84 °FSunny.5 mph55%29.89 "Hg10 mi
7:50 PM84 °FSunny.6 mph55%29.89 "Hg10 mi
7:20 PM88 °FPassing clouds.6 mph49%29.89 "HgN/A
6:50 PM88 °FPassing clouds.5 mph49%29.89 "HgN/A
6:20 PM88 °FPassing clouds.5 mph46%29.89 "HgN/A
5:50 PM90 °FPassing clouds.3 mph43%29.92 "HgN/A
5:20 PM88 °FPassing clouds.3 mph43%29.92 "HgN/A
4:50 PM88 °FPassing clouds.3 mph49%29.92 "HgN/A
4:20 PM88 °FPassing clouds.5 mph49%29.92 "HgN/A
3:50 PM86 °FPassing clouds.5 mph52%29.92 "HgN/A
3:20 PM86 °FScattered clouds.5 mph52%29.95 "HgN/A
2:50 PM84 °FScattered clouds.6 mph58%29.95 "HgN/A
2:20 PM84 °FScattered clouds.7 mph58%29.95 "HgN/A
1:50 PM86 °FScattered clouds.8 mph52%29.95 "HgN/A
1:20 PM86 °FScattered clouds.5 mph52%29.95 "HgN/A
12:50 PM86 °FScattered clouds.5 mph49%29.95 "HgN/A
12:20 PM86 °FPassing clouds.3 mph49%29.95 "HgN/A
11:50 AM88 °FPassing clouds.3 mph49%29.98 "HgN/A
11:20 AM84 °FPassing clouds.5 mph55%29.98 "HgN/A
10:50 AM84 °FPassing clouds.3 mph55%29.98 "HgN/A
10:20 AM84 °FSunny.3 mph55%29.98 "Hg10 mi
9:50 AM82 °FPassing clouds.3 mph58%29.98 "HgN/A
9:20 AM81 °FPassing clouds.3 mph58%29.98 "HgN/A
8:50 AM81 °FPassing clouds.3 mph62%30.01 "HgN/A
8:20 AM77 °FPassing clouds.3 mph69%30.01 "HgN/A
7:50 AM79 °FSunny.No wind70%30.01 "Hg10 mi
7:20 AM75 °FSunny.2 mph74%30.01 "Hg10 mi
6:50 AM73 °FClear.2 mph78%30.01 "Hg10 mi
6:20 AM73 °FClear.5 mph78%30.01 "Hg10 mi
5:50 AM72 °FClear.3 mph83%29.98 "Hg10 mi
5:20 AM72 °FPassing clouds.3 mph83%29.98 "HgN/A
4:50 AM73 °FClear.3 mph78%30.01 "Hg10 mi
4:20 AM70 °FClear.2 mph88%30.01 "Hg10 mi
3:50 AM70 °FClear.No wind88%30.01 "Hg10 mi
3:20 AM73 °FClear.2 mph78%30.01 "Hg10 mi
2:50 AM72 °FClear.2 mph83%30.01 "Hg10 mi
2:20 AM73 °FClear.2 mph78%30.01 "Hg10 mi
1:50 AM75 °FClear.3 mph74%30.01 "Hg10 mi
1:20 AM73 °FClear.2 mph78%30.01 "Hg10 mi
12:50 AM73 °FClear.2 mph78%30.01 "Hg10 mi
12:20 AM77 °FClear.2 mph69%30.01 "Hg10 mi
11:50 PM
Mon, Aug 3
75 °FClear.1 mph74%30.01 "Hg10 mi
11:20 PM75 °FClear.2 mph74%30.01 "Hg10 mi
10:50 PM77 °FClear.No wind65%30.01 "Hg10 mi
10:20 PM77 °FClear.3 mph69%29.98 "Hg10 mi
Weather by CustomWeather, © 2015

See weather overviewHow to use our weather pages